Theta_e
319 319 321 325 328 324 324 323 322 322 324 322 327 324 324 323 323 331 336 340 341 340 340 336 336 336 338 337 336 335 335 334 333 333 332 332 331 332 331 331 332 330 337 336 334 332 329 328 326
319 319 323 326 326 325 322 321 321 322 323 321 322 324 323 327 329 333 340 340 341 340 340 339 336 335 338 338 337 335 334 334 333 332 331 330 329 329 330 331 330 331 336 334 332 330 328 326 325
319 318 326 325 325 324 322 321 321 322 322 322 322 323 325 327 329 334 339 340 341 340 340 341 336 335 338 338 337 335 332 333 332 330 328 327 326 325 327 330 330 332 334 333 329 327 325 324 322
321 321 322 324 325 323 321 320 321 323 320 320 322 323 325 327 332 334 340 340 340 340 340 341 336 335 338 338 338 336 332 332 332 331 329 326 323 323 324 328 328 329 330 327 325 323 322 319 317
320 323 324 324 323 321 320 320 320 322 320 320 322 323 325 327 330 334 341 340 340 340 340 339 335 334 336 338 337 336 333 328 332 331 330 327 322 321 322 325 326 327 326 323 321 319 315 314 314
321 323 323 324 323 321 320 319 320 321 319 321 321 321 325 327 329 333 339 340 340 340 340 341 334 332 336 336 337 336 335 328 332 330 330 328 322 321 322 323 323 324 322 319 317 313 312 310 313
323 323 322 323 321 320 320 319 321 321 319 319 321 321 325 326 327 331 337 338 339 340 340 339 336 334 336 335 336 336 336 329 332 330 329 326 322 320 320 319 321 321 319 316 311 309 309 309 312
322 322 321 322 321 320 320 319 320 320 319 319 321 320 321 324 328 331 334 335 338 339 339 339 338 338 338 336 335 335 336 331 331 326 324 322 320 319 317 317 318 317 316 310 307 308 306 309 312
317 320 320 320 321 320 319 319 317 318 319 318 321 320 323 325 329 333 335 335 337 339 339 339 338 338 338 338 336 335 335 333 329 325 323 323 323 322 322 317 313 311 310 309 306 303 305 310 313
319 321 320 320 319 319 318 319 319 317 318 318 319 318 319 329 330 333 334 335 336 339 339 338 338 338 338 338 337 336 334 334 331 327 326 329 328 325 320 315 311 309 307 305 304 307 311 314 315
319 320 319 317 316 317 318 317 318 318 319 319 319 319 318 327 329 330 332 332 334 336 338 338 339 339 339 338 337 337 335 335 333 331 328 329 328 324 320 316 313 311 310 309 310 312 313 314 315
315 315 315 316 315 316 317 317 317 317 319 318 318 319 318 325 328 329 331 331 333 335 336 338 338 339 339 338 338 338 336 336 334 333 328 327 326 323 320 317 316 316 316 315 314 313 312 312 313
315 315 313 315 315 316 315 317 317 318 318 317 316 316 319 320 325 327 328 330 331 333 335 337 338 339 339 339 338 338 337 336 336 334 330 326 325 323 321 318 318 317 316 315 313 312 310 309 308
317 316 316 316 316 315 315 316 315 317 318 318 317 316 316 318 319 323 327 329 330 333 334 335 336 336 335 336 336 337 336 336 336 333 331 328 326 325 323 321 318 316 316 315 313 311 308 306 302
316 317 317 316 316 317 316 317 316 316 316 316 317 316 316 317 317 320 324 328 330 332 332 334 333 334 334 333 333 335 335 336 335 334 332 330 328 327 325 323 319 317 316 315 312 308 305 304 298
316 317 316 317 317 316 317 316 318 317 318 317 317 317 317 317 316 317 321 325 328 331 331 332 331 330 331 331 332 333 334 336 335 334 334 333 331 328 326 325 321 317 316 314 309 307 304 304 298
318 315 317 317 316 317 317 319 318 316 316 317 317 318 318 318 317 316 317 322 324 328 330 330 329 327 328 328 329 329 332 333 334 334 335 334 331 330 328 326 322 319 316 313 309 307 304 300 295
316 317 316 317 317 316 317 318 317 317 317 317 317 317 317 318 318 317 315 317 322 325 328 328 328 326 326 327 326 327 329 330 331 330 332 332 332 330 328 326 323 319 316 311 308 309 300 298 295
315 315 315 315 315 315 316 316 316 316 316 317 317 317 317 317 317 318 316 315 317 321 323 325 326 324 324 324 324 324 327 327 325 326 328 329 330 330 325 325 324 321 315 313 309 306 299 295 293
316 315 315 315 316 314 316 316 316 316 317 317 317 317 318 317 317 318 318 316 314 316 320 320 320 320 320 320 320 320 320 320 320 323 327 328 329 329 326 325 325 322 312 313 310 302 296 293 293
315 315 315 315 316 315 316 317 317 317 317 317 317 317 317 317 317 318 318 316 314 313 315 317 317 316 317 317 317 317 317 316 315 314 323 326 328 328 326 325 326 323 314 314 312 302 302 294 294
314 314 315 315 315 314 315 316 315 315 316 317 317 317 317 318 318 317 317 317 315 314 313 313 315 315 316 316 316 316 314 313 312 313 317 323 324 324 326 324 323 323 316 315 312 306 301 299 295
315 315 315 315 317 317 316 316 315 316 316 316 316 319 319 319 319 318 317 316 315 313 313 312 313 313 314 316 315 315 312 313 315 315 313 319 321 319 321 321 319 318 316 314 312 303 301 299 298
314 315 316 316 316 317 315 316 315 316 317 317 317 317 317 316 316 315 314 313 312 312 311 311 312 312 313 314 315 314 313 314 316 315 312 316 317 317 318 318 318 317 312 310 310 306 303 301 299
315 315 315 317 320 318 315 317 316 316 316 316 316 317 317 315 315 315 313 310 310 310 310 310 311 311 312 313 314 313 313 314 315 315 311 311 313 315 316 316 316 313 311 309 306 305 303 302 300
316 315 319 326 320 318 314 316 315 316 316 316 316 317 317 315 314 314 314 312 309 308 309 309 309 310 311 312 312 312 312 314 314 312 310 308 311 314 315 316 315 313 310 308 308 305 303 301 300
315 317 316 318 318 317 315 316 316 316 315 315 316 316 316 317 316 315 314 310 309 308 308 309 309 310 310 311 311 310 311 312 313 311 310 308 308 310 313 313 313 311 307 305 304 304 302 300 299
314 314 315 315 325 322 316 317 316 318 317 317 316 316 316 316 316 314 311 309 308 308 308 308 309 309 309 310 310 309 310 310 311 309 307 306 308 309 311 311 310 310 305 303 300 301 299 297 297
313 314 314 315 317 321 320 317 317 319 318 318 318 316 315 315 316 314 311 308 308 307 307 308 308 308 308 309 308 308 308 309 308 308 306 305 306 309 310 309 308 307 304 300 298 296 297 295 294
313 314 314 317 318 316 317 318 318 318 316 316 316 315 314 312 314 313 310 308 307 307 307 308 308 308 308 308 307 307 306 306 305 305 303 303 304 306 307 306 304 302 298 297 295 294 294 293 292
Wind_Speed
7 7 5 5 6 4 1 4 2 5 5 4 2 1 5 6 7 4 11 11 17 19 17 17 14 14 13 14 13 12 12 14 14 14 15 14 16 14 15 17 15 15 16 19 19 19 19 19 21
5 6 5 3 6 4 5 5 5 6 7 4 3 4 3 5 4 8 15 11 17 19 18 16 17 16 15 15 13 11 12 13 14 15 14 15 15 15 14 16 16 15 16 18 18 18 18 20 21
4 5 4 3 4 4 4 2 4 7 5 5 3 3 3 4 4 15 10 17 18 18 17 17 18 17 16 16 14 10 12 13 14 15 14 15 15 16 16 16 17 14 18 19 17 17 18 19 20
4 5 4 7 4 2 4 1 5 9 4 3 2 4 3 3 11 8 15 19 18 17 16 17 18 18 17 16 15 11 11 13 14 14 14 15 15 16 17 17 17 17 15 13 16 18 18 19 20
5 3 7 5 4 3 1 1 6 8 6 6 5 2 1 6 8 11 16 19 19 17 16 16 18 17 16 16 15 13 11 12 14 14 14 15 15 16 17 17 17 18 16 17 18 18 19 20 21
5 4 7 8 3 1 2 4 7 8 4 5 5 3 3 9 11 13 16 18 18 18 17 17 19 18 16 16 16 15 12 13 14 13 14 15 16 17 17 17 18 18 18 18 19 19 20 21 22
8 7 11 6 5 4 3 6 8 8 7 7 2 5 5 12 13 14 16 17 18 18 17 17 18 18 16 15 15 15 14 13 14 14 15 16 17 17 17 17 18 18 18 18 19 20 20 22 23
4 6 13 9 8 5 5 8 4 9 7 5 1 3 4 13 15 14 15 17 18 18 18 18 17 17 16 16 16 16 16 14 15 14 14 15 15 16 16 17 17 17 18 18 18 20 20 23 24
1 6 10 12 7 9 6 9 4 2 6 3 6 3 4 15 15 16 16 18 18 20 20 19 19 19 18 17 18 18 17 16 16 15 15 16 15 15 13 14 16 17 18 18 19 19 21 23 22
6 10 13 4 5 6 6 10 8 7 11 11 9 7 6 14 17 19 20 20 22 22 21 20 20 19 19 19 18 19 20 20 18 18 18 15 14 13 15 15 15 16 17 18 20 22 20 14 13
4 10 5 3 3 2 4 8 4 8 12 10 12 12 13 16 19 20 21 21 23 22 22 22 21 20 20 19 19 20 19 20 21 19 21 22 19 18 16 19 18 18 17 19 19 13 10 10 11
6 6 4 2 1 2 5 3 6 14 15 4 6 4 18 16 19 23 23 23 23 24 24 23 23 22 22 20 20 20 21 21 21 22 21 24 23 20 20 21 18 16 14 15 13 13 13 13 14
7 3 3 1 2 4 2 8 10 13 14 10 2 5 13 15 20 22 22 22 23 25 25 25 25 21 21 20 18 19 18 21 20 26 27 25 24 22 20 21 21 21 20 18 16 16 16 15 14
2 4 4 4 5 4 5 10 2 6 8 15 13 13 12 15 20 20 22 25 26 25 26 26 25 23 26 22 23 19 18 20 23 23 25 28 26 25 24 23 22 21 21 17 16 16 16 16 16
1 5 7 9 6 3 3 11 16 17 8 8 13 15 14 15 19 22 25 26 27 27 26 27 26 24 23 25 26 21 21 19 21 25 27 29 28 28 26 26 24 23 20 17 19 18 19 19 18
4 4 8 5 6 3 5 14 6 3 10 15 15 15 15 16 21 23 23 24 26 26 28 27 26 26 25 24 22 22 21 18 18 20 25 30 30 30 31 28 26 26 24 22 20 21 23 23 21
6 9 10 7 6 2 11 10 1 1 6 12 12 13 13 15 19 23 24 26 26 29 28 29 28 27 26 24 22 21 22 21 18 21 26 26 31 32 34 32 30 29 28 24 25 25 27 29 23
12 9 9 10 5 6 11 17 17 15 15 15 16 16 16 16 17 23 25 27 27 29 30 30 30 28 26 23 22 21 23 22 21 24 27 27 33 33 36 36 33 33 31 28 29 31 29 28 26
5 7 9 8 6 3 13 19 19 17 19 20 19 19 20 20 19 21 23 27 27 29 30 32 30 28 26 26 24 24 25 26 26 27 31 29 30 30 30 36 35 36 35 34 33 34 32 28 26
9 13 15 14 2 3 14 22 20 18 22 21 20 22 21 20 18 17 22 24 29 31 32 31 31 29 29 25 24 22 22 20 22 34 34 33 32 32 34 38 38 38 37 35 35 38 29 25 31
14 16 14 15 4 13 13 16 18 15 16 16 19 22 22 20 18 16 18 25 25 28 30 33 33 31 30 27 22 20 15 16 17 24 33 36 33 32 33 37 38 34 40 41 42 42 39 28 31
16 14 14 13 8 8 1 10 17 20 19 15 16 19 20 17 14 13 14 19 25 27 29 30 30 31 30 30 26 26 23 20 20 21 33 35 34 33 36 36 38 39 42 40 47 46 33 31 33
4 3 6 7 9 12 14 8 9 13 13 14 17 15 15 12 9 10 11 17 20 21 25 27 28 29 29 29 29 27 24 20 16 18 24 31 33 33 33 35 35 36 39 43 47 41 37 31 28
10 7 4 1 4 9 14 15 11 14 15 9 10 10 2 3 3 3 4 4 11 12 17 19 23 25 27 27 28 26 24 22 20 20 23 29 34 35 36 37 37 38 42 44 47 49 42 34 28
10 7 4 5 6 11 4 8 14 3 12 12 13 12 3 3 4 1 3 4 6 9 12 16 19 22 24 26 26 27 25 23 22 21 20 29 35 36 38 36 37 39 40 41 39 40 39 35 30
15 14 7 7 8 12 4 10 6 5 5 10 13 14 9 6 7 8 5 5 8 10 13 15 18 20 23 24 25 25 25 25 25 24 22 24 35 38 37 36 36 37 37 41 41 40 37 32 31
8 10 11 11 2 5 9 19 20 12 12 15 13 14 13 8 8 7 6 7 8 10 12 13 14 17 20 23 23 25 25 25 23 22 24 23 24 28 33 35 36 37 37 39 38 38 34 29 29
9 4 7 7 6 10 13 16 14 9 12 10 9 11 12 9 6 4 5 6 6 8 9 11 13 15 17 20 22 23 25 25 24 23 24 26 28 29 30 32 37 38 38 37 35 34 33 32 30
8 9 7 5 8 6 11 11 5 7 6 5 8 4 5 7 5 5 4 5 6 8 9 10 12 13 15 18 19 20 22 23 23 23 22 24 27 31 32 33 34 38 39 38 35 37 37 35 35
12 19 22 9 8 8 12 19 4 6 4 4 6 4 4 3 4 5 5 7 7 7 7 8 9 12 15 16 18 21 21 21 22 22 21 25 26 27 29 31 33 36 37 35 37 38 37 39 37
Wind_Direction
326 301 293 256 248 238 141 140 39 132 150 81 105 250 3 17 3 31 146 145 148 157 164 169 170 167 153 140 129 121 115 102 100 97 98 94 93 94 99 101 96 96 90 91 88 84 80 75 74
312 292 242 275 266 257 97 113 182 158 78 142 154 208 247 80 69 122 151 156 153 157 162 165 173 170 161 146 136 129 120 110 105 103 103 98 98 97 95 98 99 100 96 94 90 86 80 80 80
292 265 267 263 285 317 13 157 158 106 133 179 182 266 1 76 120 150 141 156 155 159 164 172 175 171 166 154 145 139 127 116 111 104 102 102 100 100 100 99 99 97 94 94 89 87 85 84 85
251 204 226 258 290 9 332 108 127 148 153 191 280 201 134 55 150 150 156 159 160 162 165 179 175 173 171 163 154 152 132 123 115 110 107 105 103 102 103 105 105 105 102 108 97 93 89 89 90
227 251 252 243 288 309 216 90 176 180 156 172 192 166 130 160 140 151 158 165 167 168 170 177 176 175 175 171 164 160 145 134 124 117 113 109 108 106 106 107 108 107 107 104 99 96 94 95 95
217 274 241 240 210 156 217 177 195 199 175 129 209 234 125 158 165 164 167 173 176 172 171 172 178 179 180 178 175 166 158 145 133 123 119 117 114 110 109 108 107 109 110 105 102 101 100 101 100
254 229 248 286 288 257 221 175 202 208 193 206 328 237 93 172 175 171 177 181 182 178 175 174 176 180 182 183 182 175 167 154 141 134 131 127 120 117 115 114 112 112 110 109 107 105 106 106 103
270 261 250 247 265 271 142 177 222 220 220 80 270 255 195 173 171 174 180 185 187 185 183 180 180 181 181 185 183 181 176 164 153 148 136 128 121 119 121 117 118 114 112 110 110 111 113 112 108
267 243 242 244 251 262 141 201 176 18 233 196 187 290 64 145 166 174 180 186 187 192 192 188 185 185 184 184 184 185 183 173 166 156 144 128 125 120 117 130 125 120 117 115 115 117 118 116 109
225 230 244 313 283 280 187 220 181 207 213 223 218 193 155 162 177 182 187 191 194 196 198 194 191 190 189 186 185 182 185 179 172 167 152 152 143 142 136 132 129 126 125 121 118 114 103 99 94
192 241 290 253 268 278 235 227 212 229 244 227 229 207 182 183 191 196 199 200 199 199 200 201 195 195 195 191 186 185 189 189 182 179 171 166 166 164 149 144 139 136 133 127 123 105 115 113 106
233 251 268 7 177 204 219 287 237 231 241 18 289 285 177 193 198 203 205 206 201 202 203 202 201 200 202 198 193 193 196 196 191 190 187 184 179 175 167 158 150 144 145 142 137 130 119 111 107
231 230 218 196 203 247 307 247 259 258 243 231 192 201 199 207 211 212 214 212 208 207 206 203 204 199 199 196 199 203 205 208 198 192 197 195 190 179 178 177 170 169 164 154 146 132 124 114 107
68 240 241 225 222 236 255 264 302 247 247 239 223 226 218 217 220 217 214 214 212 209 208 207 205 206 210 208 210 205 212 212 211 203 199 201 198 195 189 185 183 176 169 151 146 140 130 122 119
172 256 228 230 221 231 243 252 240 253 206 244 235 236 236 229 227 222 217 217 213 212 210 206 206 204 208 212 215 219 218 219 213 210 205 205 206 207 201 193 188 180 170 155 153 145 149 140 131
228 245 249 123 182 176 213 262 267 354 249 249 251 247 235 231 232 229 224 218 218 213 211 207 204 203 204 207 211 215 219 220 220 211 207 208 205 211 207 202 194 187 178 173 166 162 155 147 142
204 259 218 236 196 202 212 277 275 330 244 262 263 258 254 250 230 231 224 219 216 213 210 208 206 205 205 206 209 214 216 219 216 217 211 206 211 215 211 206 201 190 180 181 175 166 163 152 138
237 227 238 253 144 227 247 256 269 271 261 261 266 266 260 250 243 232 223 219 216 213 212 211 209 208 205 206 209 215 217 218 218 223 221 217 207 217 213 208 203 195 189 181 181 172 166 156 142
282 280 264 264 135 263 263 273 271 273 271 267 266 263 261 254 250 229 225 216 213 213 211 211 209 209 203 203 204 207 212 217 220 219 222 221 216 208 203 208 205 200 195 193 183 173 163 151 144
236 258 260 271 266 235 280 281 279 271 263 259 262 264 262 264 253 230 219 213 209 210 209 209 210 207 206 203 206 211 216 223 228 228 224 223 223 220 214 213 207 205 199 194 184 175 159 154 163
236 243 256 261 267 239 280 275 268 253 247 262 261 260 263 263 263 251 213 211 214 215 210 208 207 205 204 204 203 206 210 213 215 224 220 221 221 219 219 220 214 220 206 198 192 185 179 166 181
250 249 253 268 283 275 197 286 289 290 273 244 251 258 262 263 255 246 253 212 211 219 217 214 208 204 203 200 200 200 200 210 221 220 218 217 219 219 222 222 219 218 203 205 196 195 189 178 180
248 37 225 250 258 290 243 262 261 257 260 250 254 255 258 264 271 262 241 234 220 218 213 212 209 206 204 201 202 201 208 218 218 209 215 214 217 219 220 222 218 216 214 210 202 197 189 195 183
135 119 108 203 278 264 256 242 261 249 250 259 256 264 296 232 257 256 247 253 224 219 205 208 210 209 206 203 206 208 213 214 208 200 211 214 221 221 222 223 222 221 216 207 207 205 194 195 194
196 177 224 236 203 253 8 280 245 252 297 278 268 280 195 216 257 228 176 182 199 196 201 204 207 210 209 206 210 213 218 218 217 208 205 215 215 216 217 218 222 224 223 219 206 201 198 198 190
198 202 211 231 238 266 95 239 253 211 267 271 266 269 283 245 248 252 213 183 180 187 194 202 202 206 209 211 213 216 217 218 215 213 211 214 217 219 221 222 221 221 220 217 212 207 205 199 198
173 218 250 276 350 286 254 265 274 231 237 248 256 259 269 273 254 246 215 194 182 185 190 197 204 208 210 213 214 219 218 218 216 216 216 217 215 220 222 220 222 220 215 213 211 211 207 200 200
227 195 201 216 232 240 258 262 262 274 256 269 238 253 283 277 246 185 168 173 175 181 186 190 202 208 214 214 216 219 218 218 218 217 214 217 220 220 223 222 221 220 218 214 215 211 204 200 202
190 215 221 233 225 242 261 261 334 43 36 321 318 321 285 291 233 170 155 160 172 178 187 197 205 210 213 216 221 224 224 222 220 222 217 222 224 226 229 227 222 222 216 213 211 208 203 199 200
253 221 211 213 205 235 260 267 136 99 60 356 328 316 336 321 229 150 159 171 182 185 197 210 217 219 219 217 219 221 223 222 222 221 220 224 226 230 232 230 228 225 220 212 207 206 204 202 198